Location: Raitis
(47.2167°N, 11.3833°E)
Time: 05:19:49
(UTC+00:00)

Cosmos 2219 Rocket - Pass Details

Date: 03 March 2021
Orbit: 826 x 848 km, 71.0° (Epoch: 22 April)

Event Time Altitude Azimuth Distance (km) Brightness Sun altitude
Rises 17:42:03 0° 149° (SSE) 3,354 5.0 -7.5°
Reaches altitude 10° 17:45:51 10° 122° (ESE) 2,430 4.1 -8.1°
Maximum altitude 17:48:17 13° 96° (E) 2,225 3.7 -8.5°
Drops below altitude 10° 17:50:44 10° 70° (ENE) 2,442 4.0 -8.9°
Enters shadow 17:53:02 - 52° (NE) 2,955 4.6 -9.3°
